IU1DOF-3 Weather Reports


Display with metric or nautical units.
time (UTC)temp
F
wind
direction
speed
MPH
gust
MPH
rain 1hr
in
rain 24hr
in
rain mn
in
humidity
%
barometer
mb
20260508171743 57 265 0.0 0.0 0.00 0.00 0.00 80 1014.2
20260508170736 57 267 0.0 1.0 0.00 0.00 0.00 79 1014.2
20260508165728 58 259 0.0 1.0 0.00 0.00 0.00 76 1014.3
20260508164720 58 250 1.0 2.0 0.00 0.00 0.00 76 1014.4
20260508163712 59 231 1.0 1.0 0.00 0.00 0.00 75 1014.0
20260508162649 59 249 0.0 0.0 0.00 0.00 0.00 76 1014.1
20260508161640 58 262 0.0 0.0 0.00 0.00 0.00 76 1014.0
20260508160616 58 237 0.0 0.0 0.00 0.00 0.00 75 1014.2
20260508155608 58 249 1.0 2.0 0.00 0.00 0.00 74 1014.0
20260508154559 59 249 1.0 2.0 0.00 0.00 0.00 74 1014.3
20260508153541 59 204 1.0 2.0 0.00 0.00 0.00 75 1014.1
20260508152529 60 234 0.0 0.0 0.00 0.00 0.00 74 1014.2
20260508151505 60 347 0.0 2.0 0.00 0.00 0.00 75 1014.1
20260508150440 59 251 0.0 1.0 0.00 0.00 0.00 77 1014.1
20260508145432 59 183 1.0 2.0 0.00 0.00 0.00 77 1014.2
20260508144424 58 191 2.0 2.0 0.00 0.00 0.00 77 1014.5
20260508143401 58 244 2.0 2.0 0.00 0.00 0.00 78 1014.6
20260508142340 58 229 0.0 1.0 0.00 0.00 0.00 79 1014.5
20260508141329 58 240 1.0 2.0 0.00 0.00 0.00 78 1014.8
20260508140307 59 271 0.0 1.0 0.00 0.00 0.00 78 1014.8
20260508135240 59 265 3.0 5.0 0.00 0.00 0.00 77 1014.6
20260508134217 60 241 1.0 2.0 0.00 0.00 0.00 75 1014.6
20260508133152 60 198 0.0 0.0 0.00 0.00 0.00 76 1014.6
20260508132141 61 259 1.0 3.0 0.00 0.00 0.00 76 1014.8
20260508131120 62 166 1.0 2.0 0.00 0.00 0.00 75 1014.7
20260508130057 61 248 2.0 3.0 0.00 0.00 0.00 75 1014.7
20260508125041 61 334 1.0 2.0 0.00 0.00 0.00 76 1014.8
20260508124024 60 218 1.0 2.0 0.00 0.00 0.00 77 1014.7
20260508123000 57 230 1.0 1.0 0.00 0.00 0.00 80 1014.6
20260508121941 59 234 2.0 3.0 0.00 0.00 0.00 80 1014.9
20260508120928 56 241 3.0 4.0 0.00 0.00 0.00 83 1014.8
20260508115904 57 217 2.0 4.0 0.00 0.00 0.00 81 1014.6
20260508114841 57 247 3.0 4.0 0.00 0.00 0.00 80 1014.8
20260508113818 58 247 0.0 1.0 0.00 0.00 0.00 80 1014.6
20260508112753 58 257 0.0 1.0 0.00 0.00 0.00 79 1014.8
20260508111740 59 250 0.0 0.0 0.00 0.00 0.00 78 1014.6
20260508110720 57 244 2.0 3.0 0.00 0.00 0.00 79 1014.8
20260508105656 57 249 0.0 2.0 0.00 0.00 0.00 80 1014.8
20260508104640 57 244 4.0 6.0 0.00 0.00 0.00 81 1014.9
20260508103625 56 252 2.0 4.0 0.00 0.00 0.00 82 1014.8
20260508102600 57 246 1.0 2.0 0.00 0.00 0.00 82 1014.8
20260508101540 56 252 0.0 1.0 0.00 0.00 0.00 83 1015.0
20260508100529 56 239 2.0 2.0 0.00 0.00 0.00 82 1015.1
20260508095505 56 246 1.0 4.0 0.00 0.00 0.00 84 1015.0
20260508094441 56 261 2.0 5.0 0.00 0.00 0.00 81 1014.7
20260508093417 56 260 3.0 4.0 0.00 0.00 0.00 82 1014.9
20260508092353 56 262 4.0 6.0 0.00 0.00 0.00 83 1014.7
20260508091340 55 250 1.0 2.0 0.00 0.00 0.00 84 1014.6
20260508090320 55 235 2.0 4.0 0.00 0.00 0.00 83 1014.7
20260508085256 56 253 1.0 3.0 0.00 0.00 0.00 83 1014.4
20260508084240 56 262 3.0 4.0 0.00 0.00 0.00 81 1014.6
20260508083224 56 245 2.0 3.0 0.00 0.00 0.00 80 1014.6
20260508082201 56 221 2.0 2.0 0.00 0.00 0.00 82 1014.5
20260508081140 56 252 1.0 1.0 0.00 0.00 0.00 83 1014.6
20260508080130 56 252 0.0 1.0 0.00 0.00 0.00 82 1014.4
20260508075105 55 218 1.0 2.0 0.00 0.00 0.00 83 1014.4
20260508074041 55 251 2.0 2.0 0.00 0.00 0.00 83 1014.4
20260508073017 54 260 2.0 3.0 0.00 0.00 0.00 84 1014.5
20260508071954 54 251 1.0 2.0 0.00 0.00 0.00 85 1014.3
20260508070940 54 236 0.0 0.0 0.00 0.00 0.00 92 1014.4
20260508065921 53 266 0.0 0.0 0.00 0.00 0.00 94 1014.1
20260508064858 53 283 0.0 0.0 0.00 0.00 0.00 94 1014.2
20260508063841 52 284 0.0 0.0 0.00 0.00 0.00 95 1013.9
20260508062825 52 284 0.0 0.0 0.00 0.00 0.00 95 1013.9
20260508061800 52 284 0.0 0.0 0.00 0.00 0.00 95 1013.9
20260508060740 51 284 0.0 0.0 0.00 0.00 0.00 95 1013.8
20260508055728 51 284 0.0 0.0 0.00 0.00 0.00 96 1013.6
20260508054706 50 284 0.0 0.0 0.00 0.00 0.00 97 1013.7
20260508053640 50 284 0.0 0.0 0.00 0.00 0.00 97 1013.5
20260508052617 50 284 0.0 0.0 0.00 0.00 0.00 97 1013.4
20260508051553 50 284 0.0 0.0 0.00 0.00 0.00 97 1013.3
20260508050541 49 284 0.0 0.0 0.00 0.00 0.00 97 1013.1
20260508045521 49 284 0.0 0.0 0.00 0.00 0.00 97 1012.8
20260508044457 49 284 0.0 0.0 0.00 0.00 0.00 96 1012.8
20260508043441 49 286 0.0 0.0 0.00 0.00 0.00 97 1012.9
20260508042424 49 284 0.0 0.0 0.00 0.00 0.00 97 1012.9
20260508041401 49 286 0.0 0.0 0.00 0.00 0.00 97 1013.2
20260508040340 49 285 0.0 0.0 0.00 0.00 0.00 97 1012.8
20260508035328 50 284 0.0 0.0 0.00 0.00 0.00 97 1012.9
20260508034304 50 285 0.0 0.0 0.00 0.00 0.00 97 1012.6
20260508033242 50 286 0.0 0.0 0.00 0.00 0.00 97 1012.8
20260508032217 49 286 0.0 0.0 0.00 0.00 0.00 97 1012.7
20260508031152 50 284 0.0 0.0 0.00 0.00 0.00 96 1012.6
20260508030140 50 285 0.0 0.0 0.00 0.00 0.00 96 1012.6
20260508025120 50 285 0.0 0.0 0.00 0.00 0.00 96 1012.7
20260508024057 50 284 0.0 0.0 0.00 0.00 0.00 96 1012.7
20260508023041 50 286 0.0 0.0 0.00 0.00 0.00 96 1012.6
20260508022025 50 284 0.0 0.0 0.00 0.00 0.00 96 1012.6
20260508021002 50 284 0.0 0.0 0.00 0.00 0.00 95 1012.7
20260508015941 50 283 0.0 0.0 0.00 0.00 0.00 96 1012.7
20260508014929 50 286 0.0 0.0 0.00 0.00 0.00 95 1012.6
20260508013904 50 284 0.0 0.0 0.00 0.00 0.00 95 1012.7
20260508012840 50 284 0.0 0.0 0.00 0.00 0.00 95 1012.8
20260508011818 50 286 0.0 0.0 0.00 0.00 0.00 94 1012.6
20260508010752 50 286 0.0 0.0 0.00 0.00 0.00 94 1012.8
20260508005740 50 285 0.0 0.0 0.00 0.00 0.00 94 1012.8
20260508004720 51 285 0.0 0.0 0.00 0.00 0.00 94 1012.9
20260508003657 51 284 0.0 0.0 0.00 0.00 0.00 93 1012.9
20260508002633 51 286 0.0 0.0 0.00 0.00 0.00 93 1012.9
20260508001625 51 284 0.0 0.0 0.00 0.00 0.00 93 1013.0
20260508000602 51 284 0.0 0.0 0.00 0.00 0.00 92 1012.9
20260507235539 51 286 0.0 0.0 0.00 0.00 0.00 92 1013.0
20260507234530 51 285 0.0 0.0 0.00 0.00 0.00 93 1013.1
20260507233521 51 284 0.0 0.0 0.00 0.00 0.00 92 1013.2
20260507232512 51 286 1.0 1.0 0.00 0.00 0.00 91 1013.2
20260507231449 51 287 1.0 2.0 0.00 0.00 0.00 91 1013.2
20260507230439 51 284 1.0 1.0 0.00 0.00 0.00 92 1013.3
20260507225418 51 284 0.0 1.0 0.00 0.00 0.00 92 1013.2
20260507224353 50 287 1.0 1.0 0.00 0.00 0.00 92 1013.3
20260507223340 50 285 1.0 2.0 0.00 0.00 0.00 93 1013.3
20260507222321 51 286 1.0 1.0 0.00 0.00 0.00 93 1013.3
20260507221257 51 282 0.0 0.0 0.00 0.00 0.00 92 1012.9
20260507220234 51 284 0.0 0.0 0.00 0.00 0.00 92 1013.1
20260507215209 51 287 0.0 0.0 0.00 0.00 0.00 91 1013.0
20260507214145 51 287 0.0 0.0 0.00 0.00 0.00 92 1012.8
20260507213137 51 286 0.0 0.0 0.00 0.00 0.00 93 1012.9
20260507212113 51 284 0.0 0.0 0.00 0.00 0.00 93 1012.7
20260507211049 52 287 1.0 2.0 0.00 0.00 0.00 92 1012.7
20260507210039 52 287 0.0 0.0 0.00 0.00 0.00 94 1012.8
20260507205017 52 287 1.0 2.0 0.00 0.00 0.00 94 1012.8
20260507203954 52 287 0.0 0.0 0.00 0.00 0.00 94 1012.7
20260507202939 53 284 0.0 0.0 0.00 0.00 0.00 93 1012.7
20260507201921 53 299 0.0 0.0 0.00 0.00 0.00 93 1012.7
20260507200857 53 285 0.0 0.0 0.00 0.00 0.00 92 1012.6
20260507195840 53 302 1.0 2.0 0.00 0.00 0.00 90 1012.4
20260507194826 53 284 1.0 2.0 0.00 0.00 0.00 91 1012.2
20260507193801 54 284 1.0 1.0 0.00 0.00 0.00 90 1012.1
20260507192737 54 283 0.0 1.0 0.00 0.00 0.00 90 1011.8
20260507191714 54 268 1.0 1.0 0.00 0.00 0.00 88 1011.9
20260507190650 54 288 2.0 3.0 0.00 0.00 0.00 89 1011.5
20260507185639 54 286 2.0 2.0 0.00 0.00 0.00 90 1011.4
20260507184617 54 285 2.0 2.0 0.00 0.00 0.00 90 1011.4
20260507183553 54 284 1.0 1.0 0.00 0.00 0.00 91 1011.5
20260507182541 55 286 1.0 2.0 0.00 0.00 0.00 90 1011.4
20260507181522 55 285 2.0 2.0 0.00 0.00 0.00 89 1011.2
20260507180458 55 285 1.0 1.0 0.00 0.00 0.00 91 1011.3
20260507175439 55 296 0.0 0.0 0.00 0.00 0.00 90 1010.9
20260507174425 56 287 0.0 0.0 0.00 0.00 0.00 91 1011.2
20260507173401 57 304 1.0 1.0 0.00 0.00 0.00 89 1011.1
20260507172338 58 267 0.0 0.0 0.00 0.00 0.00 76 1011.1